Regional Weather Roundup
Issued by NWS Cleveland, OH

Home | Current Version | Previous Version | Graphics & Text | Print | Product List | Glossary On
Versions: 1 2 3 4 5 6 7 8 9 10 11 12 13 14 15 16 17 18 19 20 21 22 23 24 25 26 27 28 29 30 31 32 33 34 35 36 37 38 39 40 41 42 43 44 45 46 47 48 49 50
000
ASUS41 KCLE 081412
RWRCLE
OHIO REGIONAL WEATHER ROUNDUP
NATIONAL WEATHER SERVICE WILMINGTON, OH
900 AM EST SUN DEC 08 2019

NOTE: "FAIR" INDICATES FEW OR NO CLOUDS BELOW 12,000 FEET WITH NO
SIGNIFICANT WEATHER AND/OR OBSTRUCTIONS TO VISIBILITY.

OHZ001>008-015>018-024>027-034-035-043-044-081500-
   NORTHWEST OHIO

CITY           SKY/WX    TMP DP  RH WIND       PRES   REMARKS
DEFIANCE       FAIR      33  26  75 S12       30.09F WCI  24
FINDLAY        FAIR      31  24  75 S10       30.11F WCI  22
TOLEDO EXPRESS FAIR      32  23  69 S10       30.09F WCI  24
TOLEDO EXEC    FAIR      31  24  75 S9        30.11F WCI  23
LIMA           FAIR      34  27  75 S12       30.11F WCI  25
$$

OHZ009>014-019>023-028>033-038-089-081500-
   NORTHEAST OHIO

CITY           SKY/WX    TMP DP  RH WIND       PRES   REMARKS
CLE-HOPKINS    PTSUNNY   37  24  59 S13       30.17S
CLE-LAKEFRONT  FAIR      35  19  52 S21G29    30.14S WCI  24
CUY CO. ARPT   PTSUNNY   34  21  60 S14G24    30.14F WCI  24
LORAIN-ELYRIA  FAIR      32  19  58 S10       30.15S WCI  24
ASHTABULA      FAIR      33  21  61 S14       30.18F WCI  23
AKRON-CANTON   PTSUNNY   33  23  66 S14       30.17F WCI  23
WOOSTER        FAIR      33  25  72 S10       30.17S WCI  25
MANSFIELD      FAIR      35  25  66 S15       30.14S WCI  25
YOUNGSTOWN     PTSUNNY   32  19  58 SE12G20   30.19S WCI  23
$$

OHZ042-051>053-060>062-070>072-077>081-081500-
  SOUTHWEST OHIO

CITY           SKY/WX    TMP DP  RH WIND       PRES   REMARKS
CINC-COVINGTON FAIR      36  32  85 S9        30.16F
CINC-LUNKEN    FAIR      27  24  89 CALM      30.20F
HAMILTON       FAIR      32  29  88 CALM      30.19S
DAYTON         FAIR      35  27  72 S9        30.16S WCI  28
WRIGHT-PAT AFB FAIR      31  26  79 S5        30.16S WCI  27
DAYTON GENERAL FAIR      36  30  79 S12       30.15S
WILMINGTON     FAIR      36  32  85 S12       30.16F
$$

OHZ036-037-039>041-045>050-054>059-063>069-073>076-082>088-081500-
  CENTRAL AND SOUTHEAST OHIO

CITY           SKY/WX    TMP DP  RH WIND       PRES   REMARKS
COLUMBUS       PTSUNNY   33  23  66 SE5       30.19S WCI  29
OSU AIRPORT    FAIR      32  23  69 S10       30.17F WCI  24
BOLTON FIELD   SUNNY     30  27  86 S9        30.19S WCI  22
RICKENBACK AFB FAIR      30  25  80 S7        30.19S WCI  23
NEWARK         CLOUDY    31  26  82 CALM      30.20S
MARION         FAIR      31  23  72 S10       30.15F WCI  22
LANCASTER      PTSUNNY   33  27  78 SE8       30.20S WCI  26
ZANESVILLE     CLOUDY    33  26  75 S6        30.21S WCI  28
NEW PHILLY     PTSUNNY   31  23  72 SE6       30.23R WCI  25
$$



USA.gov is the U.S. government's official web portal to all federal, state and local government web resources and services.